{"data":{"norad_id":57893,"epoch":"2026-05-24T23:46:17.352768Z","epoch_age_seconds":69068,"freshness":"FRESH","line1":"1 57893U 23146C   26144.99047862  .00006063  00000+0  22964-3 0  9990","line2":"2 57893  43.0015 243.3961 0001355 280.1352  79.9347 15.27581465148725","mean_motion":15.27581465,"eccentricity":0.0001355,"inclination_deg":43.0015,"raan_deg":243.3961,"arg_perigee_deg":280.1352,"mean_anomaly_deg":79.9347,"bstar":0.00022964,"rev_number":14872,"period_min":94.266658308793,"perigee_km":482.11501918452,"apogee_km":483.97439942774,"semimajor_km":6861.1817093061,"source":"CELESTRAK","updated_at":"2026-05-25T13:38:18.451598Z"}}